Location: Agadir Irigdalene
(31.2522°N, 8.7797°W)
Time: 06:48:57
(UTC+00:00)

Hubble Space Telescope - Pass Details

Date: 01 December 2020
Orbit: 536 x 539 km, 28.5° (Epoch: 25 January)

Event Time Altitude Azimuth Distance (km) Brightness Sun altitude
Rises 19:58:30 0° 251° (WSW) 2,665 5.4 -30.7°
Reaches altitude 10° 20:00:49 10° 245° (WSW) 1,775 4.2 -31.2°
Enters shadow 20:02:17 21° 237° (WSW) 1,242 3.2 -31.5°
